Tracking 22456 objects as of 7-Mar-2021
HD Live streaming from Space Station
objects crossing your sky now

ARIANE 3 DEB

Track ARIANE 3 DEB now!
10-day predictions


NORAD ID: 22101
Int'l Code: 1988-063G
Perigee: 418.9 km
Apogee: 11,520.9 km
Inclination: 7.8 °
Period: 227.4 minutes
Semi major axis: 12340 km
RCS: 0.3069 m2 (medium)
Launch date: July 21, 1988
Source: France (FR)
Launch site: FRENCH GUIANA (FRGUI)

Note: This is SATELLITE DEBRIS
aabbcc
Your satellite tracking list
Your tracking list is empty




NASA's NSSDC Master Catalog

Two Line Element Set (TLE):
1 22101U 88063G   21064.36526697  .00001462  00000-0  73335-3 0  9995
2 22101   7.7842 186.2489 4498059  83.1140 324.3797  6.33263287211098
Source of the keplerian elements: AFSPC